Regional Weather Roundup
Issued by NWS Sioux Falls, SD

Home | Current Version | Previous Version | Graphics & Text | Print | Product List | Glossary On
Versions: 1 2 3 4 5 6 7 8 9 10 11 12 13 14 15 16 17 18 19 20 21 22 23 24 25 26 27 28 29 30 31 32 33 34 35 36 37 38 39 40 41 42 43 44 45 46 47 48 49 50
927
ASUS43 KFSD 241710
RWRFSD

WEATHER ROUNDUP FOR SE SOUTH DAKOTA/SW MINNESOTA/NW IOWA
NATIONAL WEATHER SERVICE SIOUX FALLS SD
1100 AM CST FRI NOV 24 2017

NOTE: "FAIR" INDICATES FEW OR NO CLOUDS BELOW 12,000 FEET WITH NO
SIGNIFICANT WEATHER AND OR OBSTRUCTIONS TO VISIBILITY.


SDZ038>040-050-052>070-241800-
SOUTHEAST SOUTH DAKOTA

CITY           SKY/WX    TMP DP  RH WIND       PRES   REMARKS
BROOKINGS      PTSUNNY   58  42  55 NW18G31   29.53R
CHAMBERLAIN    CLOUDY    60  41  48 NW10G18   29.63S
HURON          LGT RAIN  55  42  61 W12       29.53S
MADISON        FAIR      57  41  54 N26G35    29.52R
MITCHELL       CLOUDY    60  40  47 NW23G30   29.57R
SIOUX FALLS    LGT RAIN  57  41  55 NW16      29.52R
WINNER         FAIR      62  39  42 NW24G33   29.68R
YANKTON        SUNNY     60  40  47 NW30G36   29.53R
$$

MNZ071-072-080-081-089-090-097-098-241800-
SOUTHWEST MINNESOTA

CITY           SKY/WX    TMP DP  RH WIND       PRES   REMARKS
JACKSON        MOSUNNY   57  39  51 NW12      29.41R
LUVERNE        PTSUNNY   52  36  54 NW21G28   29.50R
MARSHALL       CLOUDY    61  40  45 NW25      29.46R
MONTEVIDEO     MOSUNNY   55  39  54 N13       29.45R
PIPESTONE      CLOUDY    48  37  66 NW15G26   29.51R
REDWOOD FALLS  SUNNY     59  38  45 NW14G23   29.41R
WINDOM         MOSUNNY   59  39  47 W15G22    29.41R
WORTHINGTON    MOSUNNY   56  40  55 NW18G25   29.45R
$$

IAZ001>003-012>014-020>022-031-032-NEZ013-014-SDZ071-241800-
NORTHWEST IOWA

CITY           SKY/WX    TMP DP  RH WIND       PRES   REMARKS
CHEROKEE       SUNNY     56  42  58 W7        29.44R
DENISON        SUNNY     59  41  51 SW14      29.47S
ESTHERVILLE    SUNNY     57  42  57 W13       29.41R
LE MARS        SUNNY     61  41  48 W15       29.46R
ORANGE CITY    SUNNY     59  45  58 NW15      29.45R
SHELDON        SUNNY     59  41  51 W12       29.43R
SIOUX CITY     SUNNY     58  43  57 N9        29.48R
SPENCER        SUNNY     58  41  53 W15       29.42S
STORM LAKE     SUNNY     57  41  54 SW13      29.42F
$$

ABBREVIATIONS USED IN REMARKS
   TC - TEMPERATURE IN CELSIUS
  WCI - WIND CHILL INDEX
   HX - HEAT INDEX
  VSB - VISIBILITY





USA.gov is the U.S. government's official web portal to all federal, state and local government web resources and services.